Weather History for Bolton Field, OH

Change the Weather History Date:

Sunday, February 17, 2013

  Actual Average Record
Temperature  
Mean Temperature 16 °F -  
Max Temperature 25 °F 40 °F 64 °F (2011)
Min Temperature 8 °F 26 °F 4 °F (2014)
Degree Days  
Heating Degree Days 49    
Moisture  
Dew Point 8 °F    
Average Humidity 72    
Maximum Humidity 85    
Minimum Humidity 50    
Precipitation  
Precipitation 0.00 in - - ()
Sea Level Pressure  
Sea Level Pressure 30.15 in    
Wind  
Wind Speed 5 mph (West)    
Max Wind Speed 12 mph    
Max Gust Speed 16 mph    
Visibility 10 miles    
Events      
Averages and records for this station are not official NWS values.
T = Trace of Precipitation, MM = Missing Value Source: NWS Daily Summary

Daily Weather History Graph

Daily Weather History Graph

Search for Another Location

Airport:

Trip Planner

Search our weather history database for the weather conditions in past years. The results will help you decide how hot, cold, wet, or windy it might be!

Date:

Astronomy

Feb. 17, 2013 Rise Set
Actual Time 7:22 AM EST 6:11 PM EST
Civil Twilight 6:54 AM EST 6:38 PM EST
Nautical Twilight 6:23 AM EST 7:10 PM EST
Astronomical Twilight 5:51 AM EST 7:41 PM EST
Moon 11:15 AM EST (2/17) 1:05 AM EST (2/17)
Length of Visible Light 11h 44m
Length of Day
10h 48m
Waxing Crescent, 49% of the Moon is Illuminated
Feb 17
Waxing Crescent
Feb 17
First Quarter
Feb 25
Full
Mar 4
Last Quarter
Mar 11
New

Hourly Weather History & Observations

Time (EST) Temp. Windchill Dew Point Humidity Pressure Visibility Wind Dir Wind Speed Gust Speed Precip Events Conditions
12:15 AM 13.6 °F 4.6 °F 5.7 °F 71% 30.06 in 10.0 mi West 5.8 mph - N/A   Clear
12:35 AM 13.1 °F 4.0 °F 5.7 °F 72% 30.06 in 10.0 mi West 5.8 mph - N/A   Clear
12:55 AM 13.1 °F 5.4 °F 4.6 °F 69% 30.06 in 10.0 mi West 4.6 mph - N/A   Clear
1:15 AM 12.2 °F 4.3 °F 4.1 °F 70% 30.07 in 10.0 mi West 4.6 mph - N/A   Clear
1:35 AM 12.0 °F 4.1 °F 3.2 °F 68% 30.07 in 10.0 mi West 4.6 mph - N/A   Mostly Cloudy
1:55 AM 13.6 °F 2.5 °F 4.6 °F 67% 30.07 in 10.0 mi West 8.1 mph - N/A   Overcast
2:15 AM 14.0 °F 5.1 °F 5.5 °F 69% 30.07 in 10.0 mi West 5.8 mph - N/A   Overcast
2:35 AM 14.4 °F 4.3 °F 5.9 °F 69% 30.07 in 10.0 mi West 6.9 mph - N/A   Overcast
2:55 AM 14.0 °F 2.9 °F 5.9 °F 70% 30.07 in 10.0 mi West 8.1 mph - N/A   Overcast
3:15 AM 13.8 °F 3.7 °F 5.9 °F 71% 30.07 in 10.0 mi WNW 6.9 mph - N/A   Overcast
3:35 AM 13.6 °F 3.5 °F 5.9 °F 71% 30.07 in 10.0 mi West 6.9 mph - N/A   Overcast
3:55 AM 12.2 °F 4.3 °F 5.2 °F 73% 30.07 in 10.0 mi West 4.6 mph - N/A   Mostly Cloudy
4:15 AM 11.3 °F 3.3 °F 5.0 °F 76% 30.08 in 10.0 mi West 4.6 mph - N/A   Scattered Clouds
4:35 AM 10.6 °F 2.5 °F 4.8 °F 78% 30.08 in 10.0 mi WSW 4.6 mph - N/A   Clear
4:55 AM 10.4 °F 4.0 °F 4.8 °F 78% 30.08 in 10.0 mi West 3.5 mph - N/A   Clear
5:15 AM 9.9 °F 3.4 °F 4.6 °F 79% 30.09 in 10.0 mi West 3.5 mph - N/A   Clear
5:35 AM 9.1 °F 2.6 °F 4.1 °F 80% 30.10 in 10.0 mi West 3.5 mph - N/A   Clear
5:55 AM 9.1 °F 2.6 °F 4.3 °F 81% 30.11 in 10.0 mi West 3.5 mph - N/A   Clear
6:15 AM 9.3 °F 1.0 °F 4.5 °F 81% 30.11 in 10.0 mi West 4.6 mph - N/A   Scattered Clouds
6:35 AM 9.3 °F 1.0 °F 4.3 °F 80% 30.12 in 10.0 mi West 4.6 mph - N/A   Scattered Clouds
6:55 AM 9.3 °F 1.0 °F 4.1 °F 79% 30.12 in 10.0 mi West 4.6 mph - N/A   Clear
7:15 AM 9.0 °F 0.6 °F 4.3 °F 81% 30.13 in 10.0 mi West 4.6 mph - N/A   Clear
7:20 AM 8.6 °F 0.1 °F 5.0 °F 85% 30.13 in 10.0 mi West 4.6 mph - N/A   Clear
7:47 AM 10.4 °F 0.8 °F 6.8 °F 85% 30.14 in 10.0 mi WNW 5.8 mph - N/A   Scattered Clouds
8:50 AM 15.8 °F 3.4 °F 8.6 °F 73% 30.16 in 10.0 mi WNW 10.4 mph - N/A   Clear
9:50 AM 15.8 °F 2.7 °F 8.6 °F 73% 30.18 in 10.0 mi West 11.5 mph - N/A   Partly Cloudy
10:47 AM 17.6 °F 7.3 °F 10.4 °F 73% 30.19 in 10.0 mi WNW 8.1 mph - N/A   Mostly Cloudy
11:53 AM 19.4 °F 8.6 °F 10.4 °F 68% 30.21 in 10.0 mi West 9.2 mph - N/A   Mostly Cloudy
12:50 PM 23.0 °F 14.7 °F 12.2 °F 63% 30.20 in 10.0 mi WNW 6.9 mph - N/A   Mostly Cloudy
1:50 PM 23.0 °F 13.1 °F 8.6 °F 54% 30.19 in 10.0 mi WSW 9.2 mph 16.1 mph N/A   Mostly Cloudy
2:50 PM 23.0 °F 13.1 °F 8.6 °F 54% 30.19 in 10.0 mi West 9.2 mph - N/A   Mostly Cloudy
4:50 PM 24.8 °F 16.9 °F 8.6 °F 50% 30.19 in 10.0 mi West 6.9 mph - N/A   Mostly Cloudy
5:50 PM 24.8 °F 17.9 °F 8.6 °F 50% 30.20 in 10.0 mi WNW 5.8 mph - N/A   Scattered Clouds
6:50 PM 21.2 °F - 10.4 °F 63% 30.21 in 10.0 mi Calm Calm - N/A   Clear
8:15 PM 18.3 °F - 12.7 °F 79% 30.22 in 10.0 mi Calm Calm - N/A   Clear
8:35 PM 18.0 °F - 13.1 °F 81% 30.22 in 10.0 mi Calm Calm - N/A   Clear
8:55 PM 17.6 °F - 11.8 °F 78% 30.21 in 10.0 mi Calm Calm - N/A   Clear
9:15 PM 18.5 °F - 12.2 °F 76% 30.21 in 10.0 mi Calm Calm - N/A   Clear
9:35 PM 18.9 °F - 11.7 °F 74% 30.22 in 10.0 mi Calm Calm - N/A   Clear
9:55 PM 18.5 °F 13.3 °F 11.3 °F 73% 30.22 in 10.0 mi East 3.5 mph - N/A   Clear
10:15 PM 19.2 °F 14.1 °F 10.6 °F 69% 30.22 in 10.0 mi ESE 3.5 mph - N/A   Clear
10:35 PM 18.5 °F 11.7 °F 11.1 °F 73% 30.22 in 10.0 mi ESE 4.6 mph - N/A   Clear
10:55 PM 18.1 °F 11.3 °F 10.9 °F 73% 30.22 in 10.0 mi ESE 4.6 mph - N/A   Clear
11:15 PM 18.3 °F 13.1 °F 10.4 °F 71% 30.23 in 10.0 mi SE 3.5 mph - N/A   Clear
11:35 PM 18.1 °F 12.9 °F 10.0 °F 71% 30.23 in 10.0 mi SE 3.5 mph - N/A   Clear
11:55 PM 18.1 °F 12.9 °F 9.5 °F 69% 30.24 in 10.0 mi SE 3.5 mph - N/A   Clear